User: anonymous   Login
Location: Unspecified
(0.0000°N, 0.0000°E)
Time: 14:45:59
(UTC+00:00)
Language:

AUBIESAT-1 - Orbit

View from above orbital plane
View from above orbital plane
View from above satellite
View from above satellite

Ground track
Ground track

The orbit data is extracted from the following two-line orbital elements,

1 37854U 11061E   15239.47848443  .00003135  00000-0  18998-3 0  9998
2 37854 101.7029 129.5046 0185126 221.0973 137.6167 14.98916816207893
Epoch (UTC): 27 August 2015 11:29:01
Eccentricity: 0.0185126
inclination: 101.7029°
perigee height: 441 km
apogee height: 699 km
right ascension of ascending node: 129.5046°
argument of perigee: 221.0973°
revolutions per day: 14.98916816
mean anomaly at epoch: 137.6167°
orbit number at epoch: 20789

The dashed part of the orbit path shows where the satellite is in the earth's shadow,  

DLR